Satellite: NOAA-14 Catalog number: 23455 Epoch time: 10147.54752268 Element set: 69 Inclination: 098.8778 deg RA of node: 228.4327 deg Eccentricity: 0.0008720 Arg of perigee: 298.0431 deg Mean anomaly: 061.9864 deg Mean motion: 14.13786300 rev/day Decay rate: -3.3e-07 rev/day^2 Epoch rev: 79458 Checksum: 328
Satellite: NOAA-15 Catalog number: 25338 Epoch time: 10147.22731928 Element set: 389 Inclination: 098.6168 deg RA of node: 134.5289 deg Eccentricity: 0.0011428 Arg of perigee: 132.1503 deg Mean anomaly: 228.0683 deg Mean motion: 14.24828416 rev/day Decay rate: 8.0e-07 rev/day^2 Epoch rev: 62576 Checksum: 309
Satellite: RESURS Catalog number: 25394 Epoch time: 10146.70933259 Element set: 512 Inclination: 098.3054 deg RA of node: 165.9573 deg Eccentricity: 0.0000747 Arg of perigee: 331.0800 deg Mean anomaly: 029.0338 deg Mean motion: 14.24201293 rev/day Decay rate: -1.8e-07 rev/day^2 Epoch rev: 61729 Checksum: 277
Satellite: FENGYUN1 Catalog number: 25730 Epoch time: 10146.77667299 Element set: 51 Inclination: 098.7859 deg RA of node: 112.2902 deg Eccentricity: 0.0023750 Arg of perigee: 333.3872 deg Mean anomaly: 026.6075 deg Mean motion: 14.08211275 rev/day Decay rate: -5.31e-06 rev/day^2 Epoch rev: 56867 Checksum: 306
Satellite: OKEAN-0 Catalog number: 25860 Epoch time: 10147.77448488 Element set: 3 Inclination: 097.8300 deg RA of node: 121.1679 deg Eccentricity: 0.0001579 Arg of perigee: 099.9628 deg Mean anomaly: 260.1758 deg Mean motion: 14.73640995 rev/day Decay rate: 5.2e-07 rev/day^2 Epoch rev: 58389 Checksum: 334
Satellite: NOAA-16 Catalog number: 26536 Epoch time: 10147.18912389 Element set: 867 Inclination: 099.1702 deg RA of node: 164.1622 deg Eccentricity: 0.0011075 Arg of perigee: 040.6267 deg Mean anomaly: 319.5781 deg Mean motion: 14.12558822 rev/day Decay rate: -2.0e-07 rev/day^2 Epoch rev: 49886 Checksum: 314
Satellite: NOAA-17 Catalog number: 27453 Epoch time: 10147.48120472 Element set: 869 Inclination: 098.4324 deg RA of node: 198.7563 deg Eccentricity: 0.0011462 Arg of perigee: 193.3935 deg Mean anomaly: 166.6949 deg Mean motion: 14.24160181 rev/day Decay rate: 1.2e-07 rev/day^2 Epoch rev: 41175 Checksum: 310
Satellite: NOAA-18 Catalog number: 28654 Epoch time: 10147.45779732 Element set: 353 Inclination: 098.9484 deg RA of node: 093.7823 deg Eccentricity: 0.0015179 Arg of perigee: 110.5013 deg Mean anomaly: 249.7772 deg Mean motion: 14.11359171 rev/day Decay rate: 3.3e-07 rev/day^2 Epoch rev: 25851 Checksum: 319
Satellite: NOAA-19 Catalog number: 33591 Epoch time: 10147.51217895 Element set: 550 Inclination: 098.7874 deg RA of node: 090.0737 deg Eccentricity: 0.0014121 Arg of perigee: 352.3049 deg Mean anomaly: 007.7881 deg Mean motion: 14.11054839 rev/day Decay rate: -1.14e-06 rev/day^2 Epoch rev: 6699 Checksum: 310
/EX SB KEPS @ AMSAT $ORB10147.M Orbital Elements 10147.MISC
HR AMSAT ORBITAL ELEMENTS FOR MANNED AND MISCELLANEOUS SATELLITES FROM WA5QGD FORT WORTH,TX May 27, 2010 Send Subscribe/unsubscribe to KEPS at http://www.amsat.org/mailman/listinfo/keps BID: ORB10147.M TO ALL RADIO AMATEURS BT
Satellite: HUBBLE Catalog number: 20580 Epoch time: 10146.96954202 Element set: 572 Inclination: 028.4698 deg RA of node: 018.3684 deg Eccentricity: 0.0003133 Arg of perigee: 332.1946 deg Mean anomaly: 027.8471 deg Mean motion: 15.00976129 rev/day Decay rate: 3.83e-06 rev/day^2 Epoch rev: 90156 Checksum: 296
Satellite: ISS Catalog number: 25544 Epoch time: 10148.00294017 Element set: 231 Inclination: 051.6468 deg RA of node: 334.1185 deg Eccentricity: 0.0009160 Arg of perigee: 355.1703 deg Mean anomaly: 142.5616 deg Mean motion: 15.74882994 rev/day Decay rate: 2.8153e-04 rev/day^2 Epoch rev: 66029 Checksum: 289
Satellite: CO-58 Catalog number: 28895 Epoch time: 10146.73444380 Element set: 0594 Inclination: 098.0179 deg RA of node: 031.9193 deg Eccentricity: 0.0017784 Arg of perigee: 356.9810 deg Mean anomaly: 003.1284 deg Mean motion: 14.59892922 rev/day Decay rate: 4.2e-07 rev/day^2 Epoch rev: 24385 Checksum: 335
Satellite: FALCON Catalog number: 30776 Epoch time: 10146.43629354 Element set: 835 Inclination: 035.4327 deg RA of node: 176.3463 deg Eccentricity: 0.0001575 Arg of perigee: 335.2357 deg Mean anomaly: 024.8284 deg Mean motion: 15.03662380 rev/day Decay rate: 3.93e-06 rev/day^2 Epoch rev: 17678 Checksum: 302
Satellite: MAST Catalog number: 31126 Epoch time: 10146.60727289 Element set: 874 Inclination: 097.9398 deg RA of node: 189.7325 deg Eccentricity: 0.0093391 Arg of perigee: 293.4650 deg Mean anomaly: 065.6747 deg Mean motion: 14.53587440 rev/day Decay rate: -2.3e-07 rev/day^2 Epoch rev: 16492 Checksum: 333
Satellite: CAPE1 Catalog number: 31130 Epoch time: 10147.80937699 Element set: 895 Inclination: 097.9401 deg RA of node: 188.3212 deg Eccentricity: 0.0100838 Arg of perigee: 297.6095 deg Mean anomaly: 061.4863 deg Mean motion: 14.52179707 rev/day Decay rate: 1.84e-06 rev/day^2 Epoch rev: 16470 Checksum: 319
Satellite: COMPASS Catalog number: 32787 Epoch time: 10145.75104764 Element set: 0682 Inclination: 097.8949 deg RA of node: 210.8144 deg Eccentricity: 0.0015948 Arg of perigee: 003.1517 deg Mean anomaly: 356.9788 deg Mean motion: 14.81870611 rev/day Decay rate: 5.47e-06 rev/day^2 Epoch rev: 11217 Checksum: 318
Satellite: AAUSAT2 Catalog number: 32788 Epoch time: 10146.63398479 Element set: 0675 Inclination: 097.8951 deg RA of node: 211.8087 deg Eccentricity: 0.0015822 Arg of perigee: 001.8159 deg Mean anomaly: 358.3081 deg Mean motion: 14.82013019 rev/day Decay rate: 3.00e-06 rev/day^2 Epoch rev: 11231 Checksum: 294
Satellite: DO-64 Catalog number: 32789 Epoch time: 10146.64492487 Element set: 0692 Inclination: 097.9022 deg RA of node: 212.2683 deg Eccentricity: 0.0015502 Arg of perigee: 359.8275 deg Mean anomaly: 000.2932 deg Mean motion: 14.82145596 rev/day Decay rate: 4.66e-06 rev/day^2 Epoch rev: 11231 Checksum: 312
Satellite: CO-66 Catalog number: 32791 Epoch time: 10145.83725291 Element set: 0675 Inclination: 097.8971 deg RA of node: 210.9182 deg Eccentricity: 0.0016286 Arg of perigee: 001.3429 deg Mean anomaly: 358.7750 deg Mean motion: 14.81655911 rev/day Decay rate: 1.23e-06 rev/day^2 Epoch rev: 11214 Checksum: 307
Satellite: RS-30 Catalog number: 32953 Epoch time: 10147.68501147 Element set: 729 Inclination: 082.5025 deg RA of node: 042.4278 deg Eccentricity: 0.0019071 Arg of perigee: 143.3381 deg Mean anomaly: 216.9010 deg Mean motion: 12.43005202 rev/day Decay rate: 1.0e-07 rev/day^2 Epoch rev: 9119 Checksum: 248
Satellite: TACSAT-3 Catalog number: 35001 Epoch time: 10147.90119949 Element set: 296 Inclination: 040.4570 deg RA of node: 335.9521 deg Eccentricity: 0.0021267 Arg of perigee: 217.5423 deg Mean anomaly: 142.3907 deg Mean motion: 15.41635801 rev/day Decay rate: 3.432e-05 rev/day^2 Epoch rev: 5750 Checksum: 272
Satellite: PHARMSAT Catalog number: 35002 Epoch time: 10147.86196137 Element set: 280 Inclination: 040.4713 deg RA of node: 334.2585 deg Eccentricity: 0.0024581 Arg of perigee: 220.5040 deg Mean anomaly: 139.3958 deg Mean motion: 15.42177979 rev/day Decay rate: 2.706e-05 rev/day^2 Epoch rev: 5751 Checksum: 287
Satellite: HAWKSAT1 Catalog number: 35003 Epoch time: 10147.87546959 Element set: 299 Inclination: 040.4635 deg RA of node: 329.5607 deg Eccentricity: 0.0022602 Arg of perigee: 234.7052 deg Mean anomaly: 125.1647 deg Mean motion: 15.45105748 rev/day Decay rate: 6.321e-05 rev/day^2 Epoch rev: 5757 Checksum: 297
Satellite: CP6 Catalog number: 35004 Epoch time: 10146.91397609 Element set: 0303 Inclination: 040.4656 deg RA of node: 334.5927 deg Eccentricity: 0.0021408 Arg of perigee: 230.0729 deg Mean anomaly: 129.8204 deg Mean motion: 15.45857168 rev/day Decay rate: 7.291e-05 rev/day^2 Epoch rev: 05742 Checksum: 297
Satellite: AEROCUB3 Catalog number: 35005 Epoch time: 10146.90539926 Element set: 0340 Inclination: 040.4752 deg RA of node: 333.0910 deg Eccentricity: 0.0018867 Arg of perigee: 241.8789 deg Mean anomaly: 118.0123 deg Mean motion: 15.50220603 rev/day Decay rate: 2.1522e-04 rev/day^2 Epoch rev: 05744 Checksum: 267
Satellite: DRAGNSAT Catalog number: 35690 Epoch time: 10076.22711312 Element set: 316 Inclination: 051.6170 deg RA of node: 315.4586 deg Eccentricity: 0.0004999 Arg of perigee: 310.9891 deg Mean anomaly: 057.3269 deg Mean motion: 16.42150010 rev/day Decay rate: 5.715194e-02 rev/day^2 Epoch rev: 3656 Checksum: 289
Satellite: POLLUX Catalog number: 35693 Epoch time: 10087.99866888 Element set: 352 Inclination: 051.6099 deg RA of node: 254.5746 deg Eccentricity: 0.0006270 Arg of perigee: 294.4866 deg Mean anomaly: 097.5899 deg Mean motion: 16.52338462 rev/day Decay rate: 2.3496735e-01 rev/day^2 Epoch rev: 3839 Checksum: 384
Satellite: CASTOR Catalog number: 35694 Epoch time: 10147.85887669 Element set: 412 Inclination: 051.6371 deg RA of node: 308.7625 deg Eccentricity: 0.0001524 Arg of perigee: 147.0596 deg Mean anomaly: 213.0510 deg Mean motion: 15.99367372 rev/day Decay rate: 6.4519e-04 rev/day^2 Epoch rev: 4780 Checksum: 317
Satellite: METEOR-M Catalog number: 35865 Epoch time: 10147.86724268 Element set: 330 Inclination: 098.7595 deg RA of node: 201.8094 deg Eccentricity: 0.0003437 Arg of perigee: 066.6524 deg Mean anomaly: 293.4996 deg Mean motion: 14.21830301 rev/day Decay rate: 1.76e-06 rev/day^2 Epoch rev: 3583 Checksum: 310
Satellite: RS-38 Catalog number: 35869 Epoch time: 10147.70019209 Element set: 338 Inclination: 098.7586 deg RA of node: 201.6742 deg Eccentricity: 0.0005532 Arg of perigee: 066.9585 deg Mean anomaly: 293.2137 deg Mean motion: 14.21982193 rev/day Decay rate: 1.77e-06 rev/day^2 Epoch rev: 3581 Checksum: 325
/EX